OE5MIL-13 Weather Reports


Display with metric or nautical units.
time (UTC)temp
F
wind
direction
speed
MPH
gust
MPH
rain 1hr
in
rain 24hr
in
rain mn
in
humidity
%
barometer
mb
20260506072415 43 281 0.0 0.0 0.00 0.00 0.00 100
20260506070414 43 112 0.0 0.0 0.00 0.00 0.00 100
20260506062412 41 112 0.0 0.0 0.00 0.00 0.00 100
20260506060410 41 112 0.0 0.0 0.00 0.00 0.00 100
20260506050407 35 112 0.0 0.0 0.00 0.00 0.00 100
20260506044406 34 118 1.0 4.0 0.00 0.00 0.00 100
20260506042404 33 167 0.0 1.0 0.00 0.00 0.00 100
20260506040403 32 111 0.0 0.0 0.00 0.00 0.00 100
20260506034402 32 111 0.0 0.0 0.00 0.00 0.00 100
20260506032402 32 111 0.0 0.0 0.00 0.00 0.00 100
20260506030400 33 111 0.0 0.0 0.00 0.00 0.00 100
20260506024359 34 111 0.0 0.0 0.00 0.00 0.00 100
20260506022358 34 111 0.0 0.0 0.00 0.00 0.00 100
20260506020356 35 111 0.0 0.0 0.00 0.00 0.00 100
20260506014355 36 111 0.0 0.0 0.00 0.00 0.00 100
20260506012354 37 132 0.0 0.0 0.00 0.00 0.00 100
20260506010353 37 122 0.0 0.0 0.00 0.00 0.00 100
20260506004352 37 122 0.0 0.0 0.00 0.00 0.00 100
20260506002351 37 122 0.0 0.0 0.00 0.00 0.00 100
20260506000349 38 122 0.0 0.0 0.00 0.00 0.00 100
20260505234348 38 122 0.0 1.0 0.00 0.00 0.00 100
20260505232347 38 270 6.0 6.0 0.00 0.00 0.00 100
20260505230346 38 296 2.0 5.0 0.00 0.00 0.00 100
20260505224345 39 279 0.0 4.0 0.00 0.00 0.00 100
20260505222344 42 250 2.0 6.0 0.00 0.00 0.00 100
20260505220343 42 188 3.0 14.0 0.00 0.00 0.00 100
20260505214341 41 316 0.0 0.0 0.00 0.00 0.00 100
20260505212340 41 106 0.0 0.0 0.00 0.00 0.00 100
20260505210418 43 233 0.0 6.0 0.00 0.00 0.00 100
20260505210339 43 233 0.0 6.0 0.00 0.00 0.00 100
20260505204338 43 302 0.0 7.0 0.00 0.00 0.00 100
20260505202337 43 195 1.0 4.0 0.00 0.00 0.00 100
20260505200336 41 90 0.0 0.0 0.00 0.00 0.00 100
20260505194335 43 113 2.0 3.0 0.00 0.00 0.00 100
20260505192333 45 181 0.0 8.0 0.00 0.00 0.00 100
20260505190332 45 296 0.0 10.0 0.00 0.00 0.00 100
20260505184331 46 153 0.0 7.0 0.00 0.00 0.00 100
20260505180329 50 237 0.0 5.0 0.00 0.00 0.00 100
20260505174328 50 317 4.0 8.0 0.00 0.00 0.00 100
20260505172327 52 260 6.0 13.0 0.00 0.00 0.00 100
20260505170325 49 115 1.0 12.0 0.00 0.00 0.00 100
20260505164324 48 248 4.0 13.0 0.00 0.00 0.00 100
20260505162323 50 217 4.0 15.0 0.00 0.00 0.00 100
20260505160322 51 85 4.0 14.0 0.00 0.00 0.00 100
20260505152320 58 160 18.0 18.0 0.00 0.00 0.00 100
20260505150318 58 57 4.0 11.0 0.00 0.00 0.00 100
20260505140315 66 156 5.0 10.0 0.00 0.00 0.00 100
20260505130312 64 150 4.0 7.0 0.00 0.00 0.00 100
20260505124310 64 157 7.0 7.0 0.00 0.00 0.00 100
20260505122309 64 189 3.0 8.0 0.00 0.00 0.00 100
20260505120308 64 205 0.0 8.0 0.00 0.00 0.00 100
20260505114307 61 164 8.0 8.0 0.00 0.00 0.00 100
20260505112306 61 154 2.0 9.0 0.00 0.00 0.00 100
20260505110349 60 185 5.0 9.0 0.00 0.00 0.00 100
20260505110305 60 185 5.0 9.0 0.00 0.00 0.00 100
20260505100301 57 8 0.0 0.0 0.00 0.00 0.00 100
20260505094300 57 137 0.0 10.0 0.00 0.00 0.00 100
20260505092259 53 281 1.0 5.0 0.00 0.00 0.00 100
20260505090258 54 254 0.0 2.0 0.00 0.00 0.00 100
20260505084257 52 281 0.0 4.0 0.00 0.00 0.00 100
20260505082255 51 300 2.0 5.0 0.00 0.00 0.00 100
20260505080254 50 327 2.0 4.0 0.00 0.00 0.00 100